Location: Eyholz
(46.2952°N, 7.9088°E)
Time: 14:15:28
(UTC+00:00)

Daily predictions for brighter satellites

Satellite Brightness Start Highest point End
(mag) Time Altitude Azimuth Time Altitude Azimuth Time Altitude Azimuth
Cosmos 1455 Rocket 4.4 19:56:24 10° NNW 20:00:27 39° W 20:04:28 10° SSW
Cosmos 1697 Rocket 3.0 19:56:41 10° NNW 20:02:14 56° ENE 20:07:44 10° SE
Cosmos 1980 Rocket 3.3 19:57:32 10° NNW 20:02:39 32° NE 20:07:42 10° ESE
H-2A R/B 4.2 20:00:36 10° SSW 20:03:55 28° W 20:07:17 10° NW
SL-16 R/B 4.4 20:01:40 10° N 20:04:20 13° NE 20:06:59 10° ENE
Cosmos 2344 4.5 20:07:33 10° NW 20:16:13 65° NE 20:28:15 10° SE
Resurs 01 Rocket 2.2 20:12:18 10° S 20:16:41 58° W 20:21:05 10° NNW
COSMOS 2406 3.6 20:14:36 10° S 20:20:01 43° ESE 20:25:26 10° NE
Cosmos 2184 Rocket 4.0 20:18:07 10° N 20:24:20 79° E 20:30:33 10° SSE
Cosmos 1833 Rocket 2.7 20:19:58 10° SSW 20:25:34 80° ESE 20:31:13 10° NNE
H-2A R/B 3.0 20:21:59 10° N 20:26:21 53° WNW 20:30:43 10° SSW
Cosmos 1867 4.2 20:24:23 10° NNW 20:29:43 49° NE 20:34:38 12° ESE
Cosmos 1536 Rocket 3.8 20:27:03 10° SSW 20:31:22 72° W 20:35:44 10° N
Cosmos 1703 3.2 20:28:40 10° S 20:32:30 87° W 20:36:23 10° N
CARTOSAT-1 3.7 20:29:36 10° S 20:33:54 77° WSW 20:38:15 10° NNW
Cosmos 1741 Rocket 4.4 20:29:19 10° NNW 20:34:35 63° WSW 20:39:49 10° S
USA 245 3.0 20:32:00 11° SSE 20:35:48 87° ENE 20:38:59 10° NNW
Cosmos 1606 Rocket 3.8 20:32:01 10° N 20:36:17 53° ENE 20:39:50 14° SSE
Ariane Rocket 3.6 20:32:59 10° S 20:37:59 56° W 20:43:00 10° NNW
Cosmos 2322 Rocket 4.4 20:35:18 10° N 20:38:46 16° NE 20:42:15 10° ENE
CZ-4B R/B 2.9 20:43:22 10° N 20:45:58 31° WNW 20:48:34 10° SW
ARIANE 5 R/B 3.4 20:44:14 16° SE 20:47:24 38° ENE 20:51:30 10° N
Terra 2.1 20:44:04 15° SE 20:47:47 54° ENE 20:52:26 10° N
SPOT 3 Rocket 3.8 20:44:23 10° S 20:49:34 69° WSW 20:54:48 10° NNW
ATLAS 2AS CENTAUR R/B 4.5 20:44:26 10° WNW 20:49:34 22° WSW 20:54:29 10° SSW
SPOT 5 2.6 20:46:56 15° SSE 20:50:32 81° ENE 20:54:52 10° NNW
Cosmos 2278 4.4 20:47:34 10° NNW 20:53:03 45° NE 20:57:25 16° ESE
RESURS DK-1 4.0 20:49:34 10° NW 20:53:08 28° WSW 20:56:41 10° SSW
USA 276 3.1 20:50:54 10° WNW 20:53:50 43° N 20:56:45 10° E
Cosmos 2341 Rocket 4.5 20:48:37 10° N 20:54:43 48° ENE 20:59:17 17° SE
FALCON 9 DEB 3.9 20:52:09 10° NW 20:55:19 45° NNE 20:58:00 13° E
Cosmos 1726 Rocket 3.5 20:53:53 10° N 20:58:13 70° E 21:01:14 19° SSE
Meteor 1-11 4.5 20:58:41 15° SSE 21:03:05 51° E 21:08:28 10° NNE
Cosmos 2082 Rocket 2.2 20:58:05 10° SSW 21:03:45 68° ESE 21:09:25 10° NNE
Helios 1A Rocket 3.1 21:04:55 18° S 21:07:55 72° WSW 21:12:02 10° NNW
Spot 2 Rocket 3.7 21:04:02 15° S 21:08:17 70° WSW 21:13:25 10° NNW
Cosmos 1328 3.9 21:05:03 12° SSW 21:08:47 80° W 21:12:48 10° N
ASTEX 1 4.1 21:04:20 10° NNE 21:08:59 37° E 21:11:40 21° SE
Cosmos 2084 Rocket 3.9 21:07:51 10° NW 21:11:36 44° SW 21:13:53 22° S
Cosmos 2360 Rocket 4.3 21:09:34 10° N 21:13:28 19° NE 21:17:21 10° E
Nadezhda 1 Rocket 4.2 21:08:05 10° SSW 21:14:08 71° W 21:20:13 10° N
Cosmos 1932 4.4 21:11:24 10° SSW 21:17:31 63° ESE 21:23:45 10° NE
Cosmos 2181 Rocket 4.3 21:17:08 21° SSE 21:21:07 49° E 21:27:07 10° NNE
X-37B 2.4 21:24:03 10° WSW 21:25:27 16° SW 21:25:27 16° SW
ERS-1 Rocket 3.5 21:22:07 17° S 21:25:55 55° W 21:30:53 10° NNW
Cosmos 1892 2.6 21:26:27 28° S 21:28:17 72° E 21:32:04 10° NNE
Cosmos 1302 Rocket 4.4 21:29:36 10° SSW 21:34:45 64° WNW 21:39:56 10° NNE
Cosmos 1892 Rocket 4.1 21:38:01 15° SSW 21:41:34 55° WNW 21:45:53 10° N
Cosmos 968 Rocket 4.1 21:38:24 10° NNW 21:43:25 48° WSW 21:46:30 22° S
Cosmos 1697 Rocket 4.4 21:41:22 10° NW 21:45:47 24° WSW 21:49:50 11° SSW
ALOS 2 4.5 21:44:13 15° E 21:46:19 20° ENE 21:49:31 10° NNE
Cosmos 1980 Rocket 2.8 21:41:24 10° NW 21:46:50 47° WSW 21:50:07 22° S
Cosmos 2219 Rocket 4.5 21:45:38 10° N 21:49:09 16° NE 21:52:41 10° E
SL-16 R/B 2.6 21:44:11 10° NNW 21:49:47 55° ENE 21:52:57 25° SE
Cosmos 1408 3.3 21:48:44 22° SW 21:50:38 45° WNW 21:53:59 10° N
Cosmos 2058 Rocket 3.5 21:46:41 10° NNW 21:51:02 56° W 21:53:20 26° SSW
Cosmos 1626 Rocket 3.5 21:50:06 35° SSE 21:51:46 65° E 21:56:05 10° NNE
ATLAS 5 CENTAUR R/B 1.2 21:50:51 14° SW 21:54:01 80° NW 21:58:11 10° NE
SL-8 Rocket 4.0 21:48:03 10° N 21:54:17 77° W 21:58:01 25° S
USA 267 3.5 21:48:23 10° ENE 21:54:37 45° SE 21:59:31 16° SSW
SJ 16-02 2.2 21:57:39 10° N 22:01:52 41° ENE 22:03:35 29° ESE
In-Cosmos 22 Rocket 4.2 21:59:05 22° SSW 22:02:45 77° WNW 22:08:11 10° N
SL-4 R/B 3.1 22:04:44 24° E 22:04:44 24° E 22:06:27 10° ENE
Cosmos 1825 2.3 22:08:00 37° SSW 22:09:17 66° W 22:13:02 10° N
Cosmos 2366 rocket 4.3 22:08:21 10° NNW 22:14:38 66° W 22:18:15 27° SSW
Cosmos 1869 3.7 22:13:28 10° NNW 22:17:18 54° W 22:18:25 39° SSW
Cosmos 2218 Rocket 4.4 22:14:48 10° NNW 22:21:05 59° W 22:24:43 26° SSW
Cosmos 2322 Rocket 2.3 22:18:11 10° NNW 22:23:52 72° ENE 22:26:28 33° SE
ARIANE 5 R/B 4.4 22:21:46 17° SW 22:23:57 24° W 22:27:32 10° NW
GP-B 4.2 22:20:02 10° NNW 22:24:10 39° W 22:26:27 22° SW
Terra 3.9 22:22:57 12° SW 22:25:52 19° W 22:29:15 10° NW
USA 234 3.7 22:22:44 10° ESE 22:29:09 60° NNE 22:35:35 10° NW
USA 276 3.1 22:26:40 10° WNW 22:28:42 36° W 22:28:42 36° W
BREEZE-M DEB (TANK) 4.0 22:33:47 10° WNW 22:37:08 76° NNE 22:50:25 10° ESE
Cosmos 1633 2.9 22:39:00 48° WSW 22:39:31 54° W 22:42:56 10° N
Cosmos 1758 Rocket 3.6 22:42:24 44° SSW 22:43:41 72° W 22:48:06 10° N
Cosmos 1238 4.3 22:44:13 77° ENE 22:44:13 77° ENE 22:47:41 10° N
Cosmos 2333 Rocket 3.1 22:39:13 10° NNW 22:44:45 45° NE 22:48:05 22° ESE
Cosmos 2082 Rocket 4.3 22:43:45 10° W 22:48:21 24° NW 22:52:58 10° N
Cosmos 1606 2.7 22:50:04 10° NNW 22:53:56 71° W 22:54:21 63° SW
Cosmos-2242 3.4 22:50:09 10° NNW 22:54:17 53° W 22:55:10 44° SW
Cosmos 1812 Rocket 4.4 22:50:47 10° NNW 22:55:00 42° W 22:56:09 35° SW
ADEOS Rocket 3.5 22:53:13 33° SSE 22:57:02 90° ENE 23:04:52 10° NNW
Cosmos 2360 Rocket 2.1 22:52:38 10° NNW 22:58:21 85° ENE 23:00:31 40° SSE
ISS -1.5 23:00:48 16° ENE 23:00:48 16° ENE 23:01:41 10° ENE
Cosmos 1340 Rocket 2.8 22:58:42 61° SE 22:59:00 64° E 23:02:56 10° NNE
Gbstr 26 Del rocket 2.9 22:59:00 39° SW 23:00:33 80° SSE 23:05:35 10° ENE
Cosmos 375 4.4 23:05:37 57° SSW 23:06:26 81° SE 23:11:22 10° NE
Cosmos 2333 4.5 23:02:11 10° NNW 23:07:58 66° ENE 23:10:39 32° SE
Cosmos 1821 Rocket 4.4 23:02:47 10° NNW 23:08:46 51° W 23:11:22 31° SSW
BREEZE-M DEB (TANK) 3.4 23:12:24 38° E 23:12:24 38° E 23:15:58 10° ENE
SL-27 R/B 3.6 23:13:18 31° ENE 23:13:18 31° ENE 23:15:36 10° NE
NOSS 3-2 (A) 4.2 23:13:40 27° SE 23:14:20 28° ESE 23:19:23 10° NE
Meteor 2-11 Rocket 4.4 23:08:50 10° N 23:15:00 81° E 23:17:23 39° SSE
Cosmos 44 3.0 23:14:09 54° SSW 23:15:10 82° SE 23:19:39 10° NE
Cosmos 1833 4.1 23:14:27 42° SSW 23:16:23 79° ESE 23:22:00 10° NNE
Cosmos 972 Rocket 4.1 23:11:25 10° NNW 23:16:42 88° WSW 23:18:42 43° SSE
Cosmos 1782 4.1 23:17:56 10° NNE 23:21:27 30° ENE 23:22:20 27° E
ALOS 2 3.1 23:21:37 42° SW 23:22:19 47° W 23:26:35 10° NNW
ERS-2 2.0 23:19:22 10° NNE 23:22:56 75° E 23:22:56 75° E
CENTAUR R/B 3.2 23:22:31 30° SE 23:23:41 32° ESE 23:29:31 10° NE
Cosmos 2237 Rocket 4.4 23:20:02 10° N 23:24:20 21° NE 23:28:35 10° E
Cosmos 1605 Rocket 4.1 23:19:16 10° N 23:25:42 72° E 23:28:27 36° SSE
Cosmos 2297 Rocket 4.2 23:29:19 12° ESE 23:30:51 13° E 23:33:24 10° ENE
Cosmos 2058 3.8 23:29:58 35° WSW 23:30:58 41° WNW 23:34:57 10° N
COSMOS 2428 3.4 23:25:37 10° NNW 23:31:12 51° ENE 23:34:37 23° SE
H-2A R/B 4.4 23:27:35 10° N 23:31:34 42° WNW 23:32:48 33° WSW
Cosmos 2151 3.9 23:31:03 34° ESE 23:31:42 36° E 23:35:38 10° NNE
SL-16 R/B 3.5 23:28:58 10° NW 23:33:30 25° WSW 23:34:48 23° WSW
Dummy Sat-02 4.5 23:29:58 10° N 23:33:46 87° W 23:33:58 80° SSW
Cosmos 1953 Rocket 3.9 23:33:03 46° SW 23:34:03 58° WNW 23:38:25 10° N
Cosmos 2219 Rocket 2.3 23:28:27 10° NNW 23:34:09 74° ENE 23:36:41 34° SE
USA 267 3.6 23:31:20 10° NE 23:37:49 67° NNW 23:44:17 10° WSW
ATLAS 5 CENTAUR R/B 4.2 23:36:46 10° WNW 23:39:21 16° NNW 23:42:10 10° NNE
SJ 16-02 3.0 23:36:47 10° NW 23:40:08 21° W 23:40:31 21° WSW
SL-4 R/B 2.6 23:40:05 18° W 23:42:27 48° NNW 23:46:05 10° ENE
Cosmos 2322 3.7 23:37:36 10° NNW 23:43:19 80° ENE 23:45:45 36° SE
Cosmos 1898 Rocket 4.0 23:39:31 10° NNW 23:44:38 55° ENE 23:47:02 30° SE
Cosmos 1937 Rocket 4.3 23:44:44 10° NNW 23:49:47 45° ENE 23:52:46 22° SE
Cosmos 2221 2.8 23:47:20 10° NNW 23:51:36 54° W 23:52:14 49° SW
COSMOS 2455 4.2 23:46:17 10° NNW 23:51:50 36° NE 23:57:20 10° ESE
PSLV R/B 3.8 23:49:37 10° N 23:54:22 74° WNW 23:55:36 48° SW
